Regional Weather Roundup
Issued by NWS

Home | Current Version | Previous Version | Graphics & Text | Print | Product List | Glossary On
Versions: 1 2 3 4 5 6 7 8 9 10 11 12 13 14 15 16 17 18 19 20 21 22 23 24 25 26 27 28 29 30 31 32 33 34 35 36 37 38 39 40 41 42 43 44 45 46 47 48 49 50
050
ASUS43 KFSD 231510
RWRSD

WEATHER ROUNDUP FOR SOUTH DAKOTA
NATIONAL WEATHER SERVICE SIOUX FALLS SD
900 AM CST FRI FEB 23 2018

NOTE: "FAIR" INDICATES FEW OR NO CLOUDS BELOW 12,000 FEET WITH NO
SIGNIFICANT WEATHER AND/OR OBSTRUCTIONS TO VISIBILITY.


SDZ001>005-009-010-012>017-231600-
NORTHWEST AND NORTH CENTRAL SOUTH DAKOTA

CITY           SKY/WX    TMP DP  RH WIND       PRES   REMARKS
BUFFALO          N/A     -3  -9  75 W7        30.09R WCI -16
FAITH            N/A     -1  -7  75 NW12      30.20R WCI -18
MOBRIDGE       SUNNY      5  -2  72 NW15      30.21R WCI -13
$$

SDZ012>016-024>037-041>051-057-063-072>074-231600-
SOUTHWEST AND SOUTH CENTRAL SOUTH DAKOTA

CITY           SKY/WX    TMP DP  RH WIND       PRES   REMARKS
RAPID CTY ARPT SUNNY      4  -2  76 CALM      30.18R
PIERRE         SUNNY      3   0  87 W12       30.25R WCI -13
CUSTER         SUNNY      4  -5  66 CALM      30.02R
ELLSWORTH AFB  SUNNY      6  -2  68 CALM      30.16R
PHILIP         SUNNY     -1  -7  75 W12       30.25R WCI -18
PINE RIDGE     SUNNY     -4  -7  87 NE3       30.19R
SPEARFISH        N/A      5  -6  61 CALM      30.12R
WINNER         FAIR       8   1  73 W12       30.25R WCI  -7
$$

SDZ004>011-016>023-039-040-231600-
NORTHEAST SOUTH DAKOTA

CITY           SKY/WX    TMP DP  RH WIND       PRES   REMARKS
ABERDEEN       SUNNY     11   8  88 NW6       30.23R WCI   1
WATERTOWN      PTSUNNY   18  16  92 NW6       30.15R WCI  10
BROOKINGS      CLOUDY    21  18  88 NW12      30.17R WCI   9
SISSETON         N/A     19  16  88 NW14      30.17R WCI   6
$$

SDZ017-020-022-023-036>040-048>070-231600-
SOUTHEAST SOUTH DAKOTA

CITY           SKY/WX    TMP DP  RH WIND       PRES   REMARKS
SIOUX FALLS    CLOUDY    18  16  92 NW9       30.20S FOG     WCI   7
HURON          CLOUDY    11   8  88 NW10      30.25R WCI  -3
CHAMBERLAIN    CLOUDY     7   4  89 W15       30.26R WCI -11
MITCHELL       SUNNY     12  10  92 W13       30.26R WCI  -3
YANKTON        CLOUDY    15  13  91 W8        30.26R WCI   4
$$

ABBREVIATIONS USED IN REMARKS
   TC - TEMPERATURE IN CELSIUS
  WCI - WIND CHILL INDEX
   HX - HEAT INDEX
  VSB - VISIBILITY





USA.gov is the U.S. government's official web portal to all federal, state and local government web resources and services.